When you browse on this site, cookies collect data to enhance your experience and personalize the content and advertising you see.
Visit our Privacy Policy to learn more. By continuing to use the site, you agree to this use of cookies and data.
  • In United Kingdom
  • List of Countries
  • For 7 days
  • Water Temperature
  • Satellite Maps
  • Weather Map
  • Weather Widgets
  • user-avatar
    Login

    Hourly Weather Santos Reyes Nopala

    Today, 16 June, Sunday

    Time Temperature Precipitation Wind Pressure Humidity
    00:00 +23°C° 0.1 mm 0 mps 718 mmHg 91%
    01:00 +25°C° 0.2 mm 1 mps 717 mmHg 91%
    02:00 +25°C° 0.2 mm 1 mps 717 mmHg 91%
    03:00 +25°C° 0.2 mm 1 mps 716 mmHg 90%
    04:00 +25°C° 0 mm 1 mps 716 mmHg 89%
    05:00 +25°C° 0 mm 1 mps 717 mmHg 88%
    06:00 +24°C° 0 mm 1 mps 717 mmHg 88%
    07:00 +26°C° 0 mm 1 mps 717 mmHg 80%
    08:00 +29°C° 0 mm 1 mps 718 mmHg 72%
    09:00 +31°C° 0 mm 1 mps 718 mmHg 64%
    10:00 +32°C° 0 mm 1 mps 718 mmHg 59%
    11:00 +34°C° 0 mm 2 mps 718 mmHg 54%
    12:00 +35°C° 0 mm 2 mps 718 mmHg 49%
    13:00 +34°C° 0.4 mm 2 mps 717 mmHg 54%
    14:00 +32°C° 0.4 mm 2 mps 716 mmHg 59%
    15:00 +32°C° 0.4 mm 2 mps 716 mmHg 65%
    16:00 +31°C° 0.7 mm 2 mps 716 mmHg 69%
    17:00 +30°C° 0.7 mm 1 mps 716 mmHg 73%
    18:00 +29°C° 0.7 mm 1 mps 716 mmHg 78%
    19:00 +28°C° 0.2 mm 1 mps 716 mmHg 81%
    20:00 +27°C° 0.2 mm 1 mps 717 mmHg 85%
    21:00 +24°C° 0.2 mm 0 mps 717 mmHg 88%
    22:00 +26°C° 0.1 mm 1 mps 717 mmHg 87%
    23:00 +26°C° 0.1 mm 1 mps 717 mmHg 86%

    Tomorrow, 17 June, Monday

    Time Temperature Precipitation Wind Pressure Humidity
    00:00 +25°C° 0.1 mm 1 mps 718 mmHg 85%
    01:00 +25°C° 0 mm 1 mps 717 mmHg 84%
    02:00 +25°C° 0 mm 1 mps 717 mmHg 83%
    03:00 +25°C° 0 mm 1 mps 716 mmHg 82%
    04:00 +25°C° 0 mm 1 mps 716 mmHg 82%
    05:00 +25°C° 0 mm 1 mps 716 mmHg 81%
    06:00 +24°C° 0 mm 1 mps 716 mmHg 81%
    07:00 +26°C° 0 mm 1 mps 717 mmHg 77%
    08:00 +27°C° 0 mm 1 mps 717 mmHg 74%
    09:00 +26°C° 0 mm 0 mps 718 mmHg 70%
    10:00 +27°C° 0 mm 0 mps 718 mmHg 65%
    11:00 +31°C° 0 mm 1 mps 718 mmHg 61%
    12:00 +32°C° 0 mm 1 mps 718 mmHg 56%
    13:00 +32°C° 0 mm 1 mps 717 mmHg 56%
    14:00 +32°C° 0 mm 1 mps 717 mmHg 56%
    15:00 +32°C° 0 mm 2 mps 717 mmHg 56%
    16:00 +31°C° 0 mm 1 mps 716 mmHg 61%
    17:00 +31°C° 0 mm 1 mps 716 mmHg 66%
    18:00 +30°C° 0 mm 1 mps 716 mmHg 71%
    19:00 +28°C° 0.1 mm 1 mps 716 mmHg 77%
    20:00 +25°C° 0.1 mm 0 mps 717 mmHg 82%
    21:00 +24°C° 0.1 mm 0 mps 717 mmHg 87%
    22:00 +24°C° 0 mm 0 mps 717 mmHg 87%
    23:00 +23°C° 0 mm 0 mps 718 mmHg 87%

    Day after tomorrow, 18 June, Tuesday

    Time Temperature Precipitation Wind Pressure Humidity
    00:00 +25°C° 0 mm 1 mps 718 mmHg 87%
    01:00 +25°C° 0 mm 1 mps 717 mmHg 87%
    02:00 +25°C° 0 mm 1 mps 717 mmHg 86%
    03:00 +25°C° 0 mm 1 mps 717 mmHg 85%
    04:00 +25°C° 0 mm 1 mps 717 mmHg 84%
    05:00 +25°C° 0 mm 1 mps 717 mmHg 83%
    06:00 +25°C° 0 mm 1 mps 717 mmHg 82%
    07:00 +27°C° 0 mm 1 mps 717 mmHg 73%
    08:00 +29°C° 0 mm 1 mps 718 mmHg 65%
    09:00 +30°C° 0 mm 0 mps 719 mmHg 56%
    10:00 +33°C° 0 mm 1 mps 718 mmHg 54%
    11:00 +34°C° 0 mm 2 mps 718 mmHg 51%
    12:00 +35°C° 0 mm 2 mps 718 mmHg 49%
    13:00 +35°C° 0.4 mm 2 mps 718 mmHg 53%
    14:00 +34°C° 0.4 mm 2 mps 717 mmHg 57%
    15:00 +34°C° 0.4 mm 2 mps 717 mmHg 61%
    16:00 +32°C° 0.6 mm 2 mps 716 mmHg 66%
    17:00 +31°C° 0.6 mm 2 mps 716 mmHg 71%
    18:00 +29°C° 0.6 mm 1 mps 716 mmHg 77%
    19:00 +28°C° 0.7 mm 1 mps 716 mmHg 81%
    20:00 +27°C° 0.7 mm 1 mps 717 mmHg 85%
    21:00 +24°C° 0.7 mm 0 mps 717 mmHg 89%
    22:00 +26°C° 1.4 mm 1 mps 717 mmHg 90%
    23:00 +26°C° 1.4 mm 1 mps 717 mmHg 90%

    19 June, Wednesday

    Time Temperature Precipitation Wind Pressure Humidity
    00:00 +26°C° 1.4 mm 1 mps 718 mmHg 90%
    01:00 +26°C° 0.4 mm 1 mps 717 mmHg 90%
    02:00 +26°C° 0.4 mm 1 mps 717 mmHg 90%
    03:00 +26°C° 0.4 mm 1 mps 716 mmHg 90%
    04:00 +26°C° 0 mm 1 mps 716 mmHg 89%
    05:00 +25°C° 0 mm 1 mps 716 mmHg 89%
    06:00 +25°C° 0 mm 1 mps 716 mmHg 89%
    07:00 +27°C° 0.1 mm 1 mps 717 mmHg 82%
    08:00 +29°C° 0.1 mm 1 mps 717 mmHg 75%
    09:00 +31°C° 0.1 mm 1 mps 718 mmHg 67%
    10:00 +32°C° 0.4 mm 1 mps 718 mmHg 64%
    11:00 +34°C° 0.4 mm 2 mps 717 mmHg 60%
    12:00 +35°C° 0.4 mm 2 mps 717 mmHg 57%
    13:00 +35°C° 1.2 mm 2 mps 717 mmHg 60%
    14:00 +34°C° 1.2 mm 2 mps 716 mmHg 63%
    15:00 +34°C° 1.2 mm 2 mps 715 mmHg 66%
    16:00 +31°C° 0.9 mm 2 mps 715 mmHg 71%
    17:00 +30°C° 0.9 mm 2 mps 715 mmHg 75%
    18:00 +29°C° 0.9 mm 1 mps 715 mmHg 80%
    19:00 +29°C° 0.7 mm 1 mps 715 mmHg 83%
    20:00 +28°C° 0.7 mm 1 mps 716 mmHg 85%
    21:00 +25°C° 0.7 mm 0 mps 717 mmHg 88%
    22:00 +27°C° 0.1 mm 1 mps 717 mmHg 87%
    23:00 +27°C° 0.1 mm 1 mps 717 mmHg 86%

    20 June, Thursday

    Time Temperature Precipitation Wind Pressure Humidity
    00:00 +26°C° 0.1 mm 1 mps 717 mmHg 86%
    01:00 +26°C° 0 mm 1 mps 717 mmHg 85%
    02:00 +26°C° 0 mm 1 mps 716 mmHg 84%
    03:00 +26°C° 0 mm 1 mps 716 mmHg 83%
    04:00 +26°C° 0 mm 1 mps 716 mmHg 82%
    05:00 +26°C° 0 mm 1 mps 716 mmHg 81%
    06:00 +26°C° 0 mm 1 mps 716 mmHg 80%
    07:00 +28°C° 0 mm 1 mps 717 mmHg 73%
    08:00 +28°C° 0 mm 0 mps 717 mmHg 66%
    09:00 +30°C° 0 mm 0 mps 717 mmHg 60%
    10:00 +33°C° 0.1 mm 1 mps 717 mmHg 57%
    11:00 +34°C° 0.1 mm 1 mps 717 mmHg 54%
    12:00 +36°C° 0.1 mm 2 mps 717 mmHg 51%
    13:00 +35°C° 1.3 mm 2 mps 716 mmHg 57%
    14:00 +34°C° 1.3 mm 2 mps 716 mmHg 63%
    15:00 +32°C° 1.3 mm 2 mps 715 mmHg 69%
    16:00 +31°C° 2.2 mm 2 mps 715 mmHg 73%
    17:00 +30°C° 2.2 mm 1 mps 715 mmHg 77%
    18:00 +29°C° 2.2 mm 1 mps 715 mmHg 82%
    19:00 +28°C° 0.4 mm 1 mps 716 mmHg 84%
    20:00 +28°C° 0.4 mm 1 mps 716 mmHg 86%
    21:00 +25°C° 0.4 mm 0 mps 717 mmHg 88%
    22:00 +25°C° 0.3 mm 0 mps 717 mmHg 87%
    23:00 +26°C° 0.3 mm 1 mps 717 mmHg 87%

    21 June, Friday

    Time Temperature Precipitation Wind Pressure Humidity
    00:00 +26°C° 0.3 mm 1 mps 717 mmHg 86%
    01:00 +26°C° 0.1 mm 1 mps 717 mmHg 85%
    02:00 +26°C° 0.1 mm 1 mps 716 mmHg 85%
    03:00 +26°C° 0.1 mm 1 mps 716 mmHg 84%
    04:00 +26°C° 0 mm 1 mps 716 mmHg 84%
    05:00 +25°C° 0 mm 1 mps 716 mmHg 84%
    06:00 +25°C° 0 mm 1 mps 716 mmHg 84%
    07:00 +27°C° 0 mm 1 mps 717 mmHg 78%
    08:00 +30°C° 0 mm 1 mps 718 mmHg 71%
    09:00 +30°C° 0 mm 0 mps 718 mmHg 64%
    10:00 +32°C° 0.3 mm 1 mps 718 mmHg 64%
    11:00 +33°C° 0.3 mm 1 mps 718 mmHg 63%
    12:00 +35°C° 0.3 mm 2 mps 717 mmHg 62%
    13:00 +34°C° 1.8 mm 2 mps 717 mmHg 65%
    14:00 +32°C° 1.8 mm 2 mps 716 mmHg 68%
    15:00 +32°C° 1.8 mm 1 mps 716 mmHg 71%
    16:00 +31°C° 0.8 mm 1 mps 716 mmHg 75%
    17:00 +30°C° 0.8 mm 1 mps 716 mmHg 78%
    18:00 +30°C° 0.8 mm 1 mps 716 mmHg 81%
    19:00 +29°C° 0.3 mm 1 mps 716 mmHg 84%
    20:00 +26°C° 0.3 mm 0 mps 716 mmHg 87%
    21:00 +25°C° 0.3 mm 0 mps 717 mmHg 90%
    22:00 +24°C° 0.7 mm 0 mps 717 mmHg 91%
    23:00 +24°C° 0.7 mm 0 mps 717 mmHg 91%
    Show more